Regional Weather Roundup
Issued by NWS

Home | Current Version | Previous Version | Text Only | Print | Product List | Glossary On
Versions: 1 2 3 4 5 6 7 8 9 10 11 12 13 14 15 16 17 18 19 20 21 22 23 24 25 26 27 28 29 30 31 32 33 34 35 36 37 38 39 40 41 42 43 44 45 46 47 48 49 50
000
ASUS43 KMPX 181310
RWRMN
WEATHER ROUNDUP FOR MINNESOTA
NATIONAL WEATHER SERVICE TWIN CITIES/CHANHASSEN MN
800 AM CDT SAT APR 18 2015


NOTE: "FAIR" INDICATES FEW OR NO CLOUDS BELOW 12,000 FEET WITH NO
SIGNIFICANT WEATHER AND/OR OBSTRUCTIONS TO VISIBILITY. N/A MEANS
CURRENT SKY AND/OR WEATHER CONDITIONS ARE NOT AVAILABLE.

MNZ060>063-068>070-181400-
   Twin Cities Metro

CITY           SKY/WX    TMP DP  RH WIND       PRES   REMARKS
TWIN CITIES    PTSUNNY   53  30  41 E13       30.10R
ST PAUL        PTSUNNY   52  30  43 E9        30.12R
CRYSTAL        MOSUNNY   51  33  50 E6        30.10R
BLAINE         MOSUNNY   52  34  50 E9        30.10S
LAKEVILLE      MOSUNNY   46  36  66 CALM      30.09S
EDEN PRAIRIE   MOSUNNY   54  31  41 E13       30.08S
SOUTH ST PAUL  PTSUNNY   52  30  43 E6        30.11R
LAKE ELMO      FAIR      52  32  46 NE10      30.12R
$$
MNZ001>005-007-008-013>017-022>024-027-028-181400-
   Northwest Minnesota

CITY           SKY/WX    TMP DP  RH WIND       PRES   REMARKS
BEMIDJI        SUNNY     38  32  77 E12       30.16S
HALLOCK        SUNNY     39  30  70 E12       30.16F
ROSEAU         SUNNY     37  30  75 E7        30.19S
WARROAD        SUNNY     36  30  80 SE6       30.21S
THIEF RVR FALL SUNNY     39  30  70 E14       30.16S
CROOKSTON      SUNNY     41  30  65 E13       30.15R
FOSSTON        SUNNY     41  30  65 E10G17    30.14S
DETROIT LAKES  MOSUNNY   46  32  57 E8        30.12S
MOORHEAD       MOSUNNY   39  25  56 CALM      30.11S
PARK RAPIDS    SUNNY     44  30  57 E13       30.13S
MAHNOMEN       FAIR      44  31  60 E12       30.11F
$$
MNZ006-009>011-018-025>026-181400-
   North Central Minnesota

CITY           SKY/WX    TMP DP  RH WIND       PRES   REMARKS
BAUDETTE       SUNNY     38  31  76 SE9       30.21S
FLAG ISLAND    SUNNY     37  30  75 E5        30.21S
INTL FALLS     SUNNY     37  32  82 E10       30.22F
WASKISH        SUNNY     37  32  81 E12       30.19F
BIG FORK       SUNNY     39  32  75 E8        30.20F
LONGVILLE      SUNNY     41  30  65 E6        30.16S
GRAND RAPIDS   SUNNY     39  28  65 E10G17    30.19R
ORR            SUNNY     36  28  75 CALM      30.20F
COOK           SUNNY     36  30  80 E8        30.22S
WALKER         FAIR      40  32  73 E8G16     30.16S
$$
MNZ012-019>021-037-181400-
   Northeast Minnesota

CITY           SKY/WX    TMP DP  RH WIND       PRES   REMARKS
DULUTH         SUNNY     40  31  70 E16G28    30.21R
ELY            SUNNY     36  30  80 E3        30.23S
HIBBING        SUNNY     39  29  67 E12       30.20S
EVELETH        SUNNY     37  32  81 E8        30.21S
DULUTH HARBOR  SUNNY     39  36  87 NE14      30.24R
TWO HARBORS    SUNNY     45  34  65 E14G21    30.20S
SILVER BAY     SUNNY     43  30  61 NE15G23   30.22S
GRAND MARAIS     N/A     36  32  85 W3        30.26R
G MARAIS ARPRT SUNNY     36  27  69 E3        30.22S
$$
MNZ029>031-032-039>041-046>048-054>057-064-181400-
   West Central Minnesota

CITY           SKY/WX    TMP DP  RH WIND       PRES   REMARKS
FERGUS FALLS   MOSUNNY   48  25  40 E9G16     30.10R
WHEATON        PTSUNNY   43  28  56 CALM      30.09S
MORRIS         MOSUNNY   52  28  40 E16       30.06R
ALEXANDRIA     SUNNY     48  28  46 E13       30.09F
ELBOW LAKE     FAIR      49  30  48 E17G23    30.07S
WADENA         SUNNY     43  28  56 E8        30.11F
GLENWOOD       SUNNY     46  28  49 E14       30.09S
APPLETON       SUNNY     48  28  46 E12       30.05S
BENSON         SUNNY     48  27  43 SE12G17   30.06F
ORTONVILLE     MOSUNNY   45  27  49 CALM      30.07R
MADISON        PTSUNNY   45  28  53 CALM      30.05S
WILLMAR        FAIR      52  30  43 E14       30.08S
$$
MNZ033>034-036-042>043-049>051-058-059-181400-
   Central Minnesota

CITY           SKY/WX    TMP DP  RH WIND       PRES   REMARKS
ST CLOUD       SUNNY     48  30  49 E10       30.11R
SAUK CENTRE    FAIR      47  29  49 E15       30.10S
PAYNESVILLE    SUNNY     47  29  49 NE8       30.10S
AITKIN         SUNNY     45  32  61 NE9       30.14F
PINE RIVER     SUNNY     43  30  61 E12       30.18S
BRAINERD       SUNNY     44  30  57 E12       30.15R
STAPLES        SUNNY     45  30  57 E6        30.13S
LONG PRAIRIE   FAIR      45  28  53 NE10      30.11S
LITTLE FALLS   SUNNY     45  30  57 E3        30.13R
LITCHFIELD     SUNNY     50  30  46 E9        30.09S
BUFFALO        MOSUNNY   49  30  47 NE8       30.11S
MAPLE LAKE     MOSUNNY   50  33  52 NE8       30.11R
$$
MNZ037-044-045-052-053-181400-
   East Central Minnesota

CITY           SKY/WX    TMP DP  RH WIND       PRES   REMARKS
PRINCETON      MOSUNNY   48  32  53 NE8       30.13R
MORA           SUNNY     45  32  61 E10G17    30.16S
CAMBRIDGE      MOSUNNY   50  34  53 NE5       30.11S
RUSH CITY      MOSUNNY   47  33  58 NE9       30.14S
MOOSE LAKE     SUNNY     41  32  70 E8G17     30.16F
HINCKLEY       FAIR      45  34  65 E12       30.16R
CLOQUET        SUNNY     41  30  65 E12G22    30.20R
MCGREGOR       SUNNY     41  32  70 E15       30.17F
$$
MNZ071>073-080-081-089-090-097-098-181400-
   Southwest Minnesota

CITY           SKY/WX    TMP DP  RH WIND       PRES   REMARKS
MONTEVIDEO     MOSUNNY   48  28  46 SE10      30.06S
GRANITE FALLS  MOSUNNY   48  30  50 NE9       30.06F
CANBY          PTSUNNY   47  32  55 CALM      30.06S
MARSHALL       PTSUNNY   46  25  42 E5        30.05S
REDWOOD FALLS  MOSUNNY   49  30  48 NE8       30.05S
OLIVIA         SUNNY     46  30  53 E8        30.05S
PIPESTONE      CLOUDY    54  21  28 E9        30.02S
WINDOM         PTSUNNY   52  28  40 CALM      30.04R
WORTHINGTON    CLOUDY    52  30  43 N7        30.03S
JACKSON        CLOUDY    57  30  35 NE9       30.03S
TRACY          PTSUNNY   47  30  50 CALM      30.05R
SLAYTON        PTSUNNY   51  23  32 CALM      30.04S
$$
MNZ065>067-074>077-082>085-091>093-181400-
   South Central Minnesota

CITY           SKY/WX    TMP DP  RH WIND       PRES   REMARKS
MANKATO        MOSUNNY   55  30  38 N6        30.05S
NEW ULM        MOSUNNY   52  27  37 E10       30.04F
ST JAMES       PTSUNNY   54  34  47 NE5       30.05S
FAIRMONT       PTSUNNY   52  34  50 N6        30.03S
GLENCOE        MOSUNNY   49  36  60 NE3       30.07S
FARIBAULT      MOSUNNY   54  34  47 NE12      30.07S
OWATONNA       MOSUNNY   52  34  50 E13G20    30.06S
ALBERT LEA     MOSUNNY   55  37  50 NE8       30.05S
$$
MNZ078>079-086>088-094>096-181400-
   Southeast Minnesota

CITY           SKY/WX    TMP DP  RH WIND       PRES   REMARKS
ROCHESTER      MOSUNNY   53  38  56 NE12      30.09R
RED WING       PTSUNNY   55  28  35 E7        30.10R
STANTON        PTSUNNY   53  32  44 E10       30.07S
DODGE CENTER   MOSUNNY   52  37  58 E12       30.07S
WINONA         MOSUNNY   48  43  81 CALM      30.11R
AUSTIN         LGT RAIN  55  37  50 E7        30.05S
PRESTON        SUNNY     54  37  53 NE8       30.07S
$$
ABBREVIATIONS USED IN REMARKS
   TC - TEMPERATURES IN CELSIUS
  WCI - WIND CHILL INDEX
   HX - HEAT INDEX
  VSB - VISIBILITY
$$



USA.gov is the U.S. government's official web portal to all federal, state and local government web resources and services.